Regional Weather Roundup
Issued by NWS

Home | Current Version | Previous Version | Graphics & Text | Print | Product List | Glossary On
Versions: 1 2 3 4 5 6 7 8 9 10 11 12 13 14 15 16 17 18 19 20 21 22 23 24 25 26 27 28 29 30 31 32 33 34 35 36 37 38 39 40 41 42 43 44 45 46 47 48 49 50
000
ASUS45 KABQ 270301
RWRNM
WEATHER ROUNDUP FOR NEW MEXICO
NATIONAL WEATHER SERVICE ALBUQUERQUE NM
900 PM MDT SUN APR 26 2015

NOTE: "FAIR" MEANS FEW OR NO CLOUDS BELOW 12,000 FEET AGL WITH NO
       SIGNIFICANT WEATHER OR OBSTRUCTIONS TO VISION.

      THIS PRODUCT IS RELEASED AS TWO VERSIONS.  ONE VERSION NEAR
      THE TOP OF THE HOUR CONTAINING PRELIMINARY DATA FROM ALBUQUERQUE
      AND OTHER STATIONS.  A FINAL VERSION WITH ADDITIONAL DATA IS
      ISSUED ABOUT 10 MINUTES AFTER THE HOUR.

NMZ501-503-504-510>518-270400-
NORTHWEST PLATEAU/NORTHCENTRAL MOUNTAINS

CITY           SKY/WX    TMP DP  RH WIND       PRES   REMARKS
FARMINGTON     CLOUDY    47  42  83 CALM      29.81R
SANTA FE       MOCLDY    42  35  76 N6        29.82R
TAOS           CLOUDY    39  28  65 E7        29.89R WCI  34
ANGEL FIRE     LGT SNOW  32  32  99 N6        29.88R WCI  26

$$
NMZ402-403-502-505>509-270400-
WESTCENTRAL MOUNTAINS/SOUTHWEST MOUNTAINS

CITY           SKY/WX    TMP DP  RH WIND       PRES   REMARKS
GALLUP         CLOUDY    42  39  89 S3        29.89R
GRANTS         LGT RAIN  41  39  93 NW9G21    29.89R
SILVER CITY      N/A     46  37  71 NW20      29.91R

$$
NMZ407-409-411-412-270400-
SOUTHERN DESERTS

CITY           SKY/WX    TMP DP  RH WIND       PRES   REMARKS
DEMING         PTCLDY    53  38  56 W14G26    29.86R
ALAMOGORDO     PTCLDY    50  34  53 N3        29.81R
T OR C         MOCLDY    52  39  61 N9        29.82R

$$
NMZ519>523-270400-
CENTRAL VALLEYS/CENTRAL HIGHLANDS

CITY           SKY/WX    TMP DP  RH WIND       PRES   REMARKS
ALBUQUERQUE    LGT RAIN  48  43  82 W6        29.83R
DOUBLE EAGLE   CLOUDY    43  39  87 W7        29.84R
MORIARTY ARPT  MOCLDY    40  37  88 W3        29.84R
CLINES CORNERS PTCLDY    36  33  89 W9        29.82R WCI  29
BELEN          DRIZZLE   47  44  87 S3        29.83R
SOCORRO        NOT AVBL

$$
NMZ524>526-539-540-270400-
SOUTHCENTRAL MOUNTAINS

CITY           SKY/WX    TMP DP  RH WIND       PRES   REMARKS
RUIDOSO        NOT AVBL

$$
NMZ527>531-270400-
NORTHEAST HIGHLANDS/NORTHEAST PLAINS

CITY           SKY/WX    TMP DP  RH WIND       PRES   REMARKS
LAS VEGAS      CLOUDY    43  32  65 E8        29.85R
RATON          CLOUDY    45  38  76 NE14      29.90R
CLAYTON        LGT RAIN  45  43  93 NE22      29.91R FOG

$$
NMZ532>537-270400-
EASTCENTRAL PLAINS

CITY           SKY/WX    TMP DP  RH WIND       PRES   REMARKS
TUCUMCARI      CLOUDY    50  46  86 E31G39    29.79R
CANNON AFB     NOT AVBL
CLOVIS AIRPORT CLOUDY    57  34  41 E16G24    29.75R

$$
NMZ028-029-538-270400-
SOUTHEAST PLAINS

CITY           SKY/WX    TMP DP  RH WIND       PRES   REMARKS
ROSWELL        PTCLDY    55  41  59 NW12      29.74R
ARTESIA        MOCLDY    57  37  47 W12       29.75R
CARLSBAD       PTCLDY    61  31  32 W12       29.73R
HOBBS          PTCLDY    55  32  41 SW9       29.74R


$$


USA.gov is the U.S. government's official web portal to all federal, state and local government web resources and services.